FW3092 Weather Reports


Display with metric or nautical units.
time (UTC)temp
F
wind
direction
speed
MPH
gust
MPH
rain 1hr
in
rain 24hr
in
rain mn
in
humidity
%
barometer
mb
20260831000056 65 266 3.0 8.0 0.00 0.00 0.00 84 963.2
20260830234549 65 282 2.0 8.0 0.00 0.00 0.00 83 963.1
20260830233056 65 268 2.0 9.0 0.00 0.00 0.00 83 963.2
20260830231545 65 272 2.0 10.0 0.00 0.00 0.00 83 963.0
20260830230044 66 271 3.0 7.0 0.00 0.00 0.00 82 963.1
20260830224545 66 279 2.0 7.0 0.00 0.00 0.00 82 963.2
20260830223043 66 263 3.0 6.0 0.00 0.00 0.00 82 963.1
20260830221548 66 269 3.0 6.0 0.00 0.00 0.00 82 962.9
20260830220057 66 284 0.0 4.0 0.00 0.00 0.00 81 963.0
20260830214542 67 261 2.0 7.0 0.00 0.00 0.00 81 963.0
20260830213044 67 260 4.0 7.0 0.00 0.00 0.00 81 963.0
20260830211547 67 261 3.0 7.0 0.00 0.00 0.00 81 963.2
20260830210042 67 272 4.0 8.0 0.00 0.00 0.00 80 963.1
20260830204553 67 273 2.0 6.0 0.00 0.00 0.00 80 963.0
20260830203039 67 265 1.0 2.0 0.00 0.00 0.00 80 963.1
20260830201546 67 263 1.0 5.0 0.00 0.00 0.00 79 963.2
20260830200043 67 284 1.0 6.0 0.00 0.00 0.00 79 963.1
20260830194540 68 301 3.0 8.0 0.00 0.00 0.00 78 963.0
20260830193035 69 287 4.0 12.0 0.00 0.00 0.00 77 963.2
20260830191612 70 5 4.0 9.0 0.00 0.00 0.00 75 963.0
20260830190045 71 267 3.0 8.0 0.00 0.00 0.00 76 963.1
20260830184537 72 273 2.0 4.0 0.00 0.00 0.00 76 963.0
20260830183033 73 279 1.0 4.0 0.00 0.00 0.00 75 963.0
20260830181532 73 257 2.0 5.0 0.00 0.00 0.00 74 963.0
20260830180036 73 248 4.0 7.0 0.00 0.00 0.00 72 963.1
20260830174532 74 284 2.0 8.0 0.00 0.00 0.00 72 963.3
20260830173027 74 219 3.0 6.0 0.00 0.00 0.00 71 963.3
20260830171525 74 248 4.0 9.0 0.00 0.00 0.00 73 963.5
20260830170024 73 256 3.0 7.0 0.00 0.00 0.00 73 963.6
20260830164521 73 248 4.0 10.0 0.00 0.00 0.00 74 963.6
20260830163034 73 208 6.0 11.0 0.00 0.00 0.00 75 963.6
20260830161515 72 259 4.0 7.0 0.00 0.00 0.00 77 963.8
20260830160025 71 253 4.0 7.0 0.00 0.00 0.00 79 964.0
20260830154510 70 251 4.0 7.0 0.00 0.00 0.00 78 964.1
20260830153006 69 262 5.0 10.0 0.00 0.00 0.00 79 964.3
20260830151502 67 250 4.0 9.0 0.00 0.00 0.00 79 964.1
20260830150106 67 206 6.0 9.0 0.00 0.00 0.00 79 964.1
20260830144608 67 242 3.0 8.0 0.00 0.00 0.00 79 964.4
20260830143058 67 202 3.0 11.0 0.00 0.00 0.00 79 964.2
20260830141557 66 182 3.0 10.0 0.00 0.00 0.00 80 963.7
20260830134551 63 207 3.0 5.0 0.00 0.00 0.00 82 964.3
20260830133059 63 198 3.0 6.0 0.00 0.00 0.00 82 964.3
20260830131552 62 198 2.0 5.0 0.00 0.00 0.00 83 964.3
20260830130056 61 217 2.0 5.0 0.00 0.00 0.00 83 964.7
20260830124540 61 196 2.0 5.0 0.00 0.00 0.00 82 964.7
20260830123039 60 198 1.0 5.0 0.00 0.00 0.00 83 964.5
20260830121540 60 194 2.0 5.0 0.00 0.00 0.00 84 964.5
20260830120049 59 207 2.0 4.0 0.00 0.00 0.00 83 964.5
20260830114535 59 198 0.0 4.0 0.00 0.00 0.00 83 964.7
20260830113029 59 205 2.0 4.0 0.00 0.00 0.00 83 965.0
20260830111531 59 192 1.0 4.0 0.00 0.00 0.00 83 964.9
20260830110031 58 187 1.0 4.0 0.00 0.00 0.00 83 965.1
20260830104527 58 188 0.0 4.0 0.00 0.00 0.00 83 965.0
20260830103025 58 199 1.0 3.0 0.00 0.00 0.00 83 964.9
20260830101522 59 207 0.0 3.0 0.00 0.00 0.00 83 964.9
20260830100024 59 220 1.0 4.0 0.00 0.00 0.00 83 965.0
20260830094527 59 216 2.0 5.0 0.00 0.00 0.00 82 965.0
20260830093028 59 226 2.0 5.0 0.00 0.00 0.00 82 965.2
20260830091520 60 223 1.0 4.0 0.00 0.00 0.00 81 965.2
20260830090012 60 231 3.0 6.0 0.00 0.00 0.00 81 965.2
20260830084513 60 223 3.0 7.0 0.00 0.00 0.00 80 965.2
20260830083011 61 214 3.0 6.0 0.00 0.00 0.00 80 965.3
20260830081527 61 240 3.0 8.0 0.00 0.00 0.00 80 965.4
20260830080008 60 242 3.0 8.0 0.00 0.00 0.00 80 965.5
20260830074519 61 223 3.0 5.0 0.00 0.00 0.00 80 965.4
20260830073005 61 219 3.0 8.0 0.00 0.00 0.00 80 965.6
20260830071505 61 233 4.0 8.0 0.00 0.00 0.00 81 965.7
20260830070005 60 238 3.0 6.0 0.00 0.00 0.00 81 965.5
20260830064507 60 216 2.0 5.0 0.00 0.00 0.00 81 965.5
20260830063002 60 232 3.0 4.0 0.00 0.00 0.00 81 965.6
20260830061508 60 236 1.0 4.0 0.00 0.00 0.00 81 965.5
20260830060002 60 219 2.0 4.0 0.00 0.00 0.00 81 965.6
20260830054500 61 233 2.0 4.0 0.00 0.00 0.00 80 965.6
20260830053058 61 220 2.0 4.0 0.00 0.00 0.00 80 965.6
20260830051605 61 205 1.0 4.0 0.00 0.00 0.00 80 965.8
20260830050056 61 205 1.0 4.0 0.00 0.00 0.00 79 965.5
20260830044607 62 227 2.0 6.0 0.00 0.00 0.00 78 965.8
20260830043053 62 234 3.0 7.0 0.00 0.00 0.00 78 965.8
20260830041602 62 212 3.0 8.0 0.00 0.00 0.00 78 965.8
20260830040053 62 234 4.0 8.0 0.00 0.00 0.00 78 965.6
20260830034548 61 230 2.0 6.0 0.00 0.00 0.00 79 965.4
20260830033048 61 223 3.0 8.0 0.00 0.00 0.00 79 965.4
20260830031549 62 227 3.0 5.0 0.00 0.00 0.00 78 965.4
20260830030046 62 250 4.0 7.0 0.00 0.00 0.00 78 965.8
20260830024600 62 232 3.0 7.0 0.00 0.00 0.00 78 965.8
20260830023144 62 210 3.0 5.0 0.00 0.00 0.00 76 965.8
20260830021543 62 227 2.0 4.0 0.00 0.00 0.00 75 965.7
20260830020048 63 229 2.0 4.0 0.00 0.00 0.00 74 965.8
20260830014543 63 229 2.0 4.0 0.00 0.00 0.00 73 965.8
20260830013047 64 238 2.0 4.0 0.00 0.00 0.00 72 965.9
20260830011547 65 238 1.0 2.0 0.00 0.00 0.00 70 965.7
20260830010042 65 238 1.0 3.0 0.00 0.00 0.00 69 965.6
20260830004546 66 238 0.0 3.0 0.00 0.00 0.00 68 965.6
20260830003051 66 239 1.0 4.0 0.00 0.00 0.00 66 965.6
20260830001539 66 240 1.0 3.0 0.00 0.00 0.00 66 965.4